Regional Weather Roundup
Issued by NWS

Home | Current Version | Previous Version | Graphics & Text | Print | Product List | Glossary Off
Versions: 1 2 3 4 5 6 7 8 9 10 11 12 13 14 15 16 17 18 19 20 21 22 23 24 25 26 27 28 29 30 31 32 33 34 35 36 37 38 39 40 41 42 43 44 45 46 47 48 49 50

000
ASUS43 KTOP 240808
RWRKS

WEATHER ROUNDUP FOR KANSAS
NATIONAL WEATHER SERVICE GOODLAND KS
300 AM CDT WED AUG 24 2016

NOTE:  "FAIR" INDICATES FEW OR NO CLOUDS BELOW 12,000 FEET WITH NO
SIGNIFICANT WEATHER AND/OR OBSTRUCTIONS TO VISIBILITY.

KSZ001>006-013>018-027>032-041>047-240900-
NORTHWEST KANSAS

CITY           SKY/WX    TMP DP  RH WIND       PRES   REMARKS
GOODLAND       MOCLDY    61  51  70 W13       30.07R
HAYS           CLOUDY    73  57  56 NW8       29.94R
HILL CITY      CLOUDY    71  55  56 E5        29.96R
RUSSELL        PTCLDY    72  65  78 S9        29.91R
$$

KSZ061>065-074>080-084>089-240900-
SOUTHWEST KANSAS

CITY           SKY/WX    TMP DP  RH WIND       PRES   REMARKS
DODGE CITY     PTCLDY    74  63  68 S15G22    29.95S
ELKHART          N/A     72  53  51 NW8         N/A
GARDEN CITY    CLOUDY    72  63  73 SW8       29.97R
GREAT BEND     MOCLDY    73  61  64 W7        29.94R
LIBERAL        PTCLDY    73  59  60 S16       29.99S
PRATT          CLOUDY    74  63  67 S14       29.94S
$$

KSZ066>073-081>083-090>101-240900-
SOUTHEAST KANSAS

CITY           SKY/WX    TMP DP  RH WIND       PRES   REMARKS
CHANUTE        CLEAR     78  71  79 S13       29.98R
COFFEYVILLE    CLOUDY    80  71  74 S13       29.98R
HUTCHINSON     CLOUDY    76  61  59 S9        29.93S
MEDICINE LODGE   N/A     75  61  61 S5        29.94S
NEWTON         PTCLDY    77  70  79 S14       29.94S
PARSONS        CLOUDY    79  70  74 S8        30.00R
WICHITA INTL   MOCLDY    77  67  71 S12       29.94S
WICHITA JABRA  PTCLDY    77  70  79 S12       29.94S
WICHITA MCCONL PTCLDY    76  70  80 S12       29.95R
WINFIELD       CLOUDY    78  69  73 S8        29.97S
$$

KSZ007>012-019>026-033>040-048>060-102>105-240900-
NORTHEAST KANSAS

CITY           SKY/WX    TMP DP  RH WIND       PRES   REMARKS
CONCORDIA      PTCLDY    75  69  81 S9        29.88R
EMPORIA        CLEAR     76  70  82 S15       29.94R
LAWRENCE       PTCLDY    73  71  93 SE5       29.94R
MANHATTAN      MOCLDY    75  71  87 CALM      29.91R
MARYSVILLE     CLOUDY    68  63  83 E12G18    29.97R
OLATHE IND     CLOUDY    76  71  85 S13       29.95S
OLATHE EXE     CLOUDY    76  70  82 S12G20    29.95R
SALINA         CLOUDY    80  67  64 SW16      29.90R
TOPEKA BILLARD MOCLDY    74  69  85 CALM      29.94R
TOPEKA FORBES  MOCLDY    80  71  74 S12       29.94R
$$



USA.gov is the U.S. government's official web portal to all federal, state and local government web resources and services.